Vichy, MO

7:56 PM CST on February 11, 2016 (GMT -0600)
Rolla National

Weather History for KVIH - July, 2013

Change the Weather History Date:

Monday, July 15, 2013

  Actual Average Record
Temperature  
Mean Temperature 78 °F 78 °F  
Max Temperature 87 °F 88 °F 107 °F (1980)
Min Temperature 68 °F 67 °F 54 °F (2014)
Degree Days  
Heating Degree Days 0 0  
Month to date heating degree days 0 0  
Since 1 June heating degree days 17 14  
Since 1 July heating degree days 0 0  
Cooling Degree Days 13 12  
Month to date cooling degree days 130 176  
Year to date cooling degree days 454 518  
Since 1 June cooling degree days 347 411  
Growing Degree Days 27 (Base 50)    
Moisture  
Dew Point 70 °F    
Average Humidity 79    
Maximum Humidity 97    
Minimum Humidity 61    
Precipitation  
Precipitation T in 0.14 in 1.64 in (1981)
Month to date precipitation 1.60 2.16  
Year to date precipitation 26.69 23.60  
Sea Level Pressure  
Sea Level Pressure 30.16 in    
Wind  
Wind Speed 7 mph (ESE)    
Max Wind Speed 15 mph    
Max Gust Speed 18 mph    
Visibility 10 miles    
Events Thunderstorm    
T = Trace of Precipitation, MM = Missing Value Source: NWS Daily Summary

Daily Weather History Graph

Daily Weather History Graph

Search for Another Location

Airport or City:

Trip Planner

Search our weather history database for the weather conditions in past years. The results will help you decide how hot, cold, wet, or windy it might be!

Date:

Astronomy

Jul. 15, 2013 Rise Set
Actual Time 5:56 AM CDT 8:29 PM CDT
Civil Twilight 5:25 AM CDT 8:59 PM CDT
Nautical Twilight 4:47 AM CDT 9:37 PM CDT
Astronomical Twilight 4:05 AM CDT 10:20 PM CDT
Moon 1:08 PM CDT (7/15) No Moon Set
Length of Visible Light 15h 34m
Length of Day
14h 33m
Waxing Crescent, 45% of the Moon is Illuminated
Jul 15
Waxing Crescent
Jul 15
First Quarter
Jul 22
Full
Jul 29
Last Quarter
Aug 6
New

Hourly Weather History & Observations

Time (CDT) Temp. Heat Index Dew Point Humidity Pressure Visibility Wind Dir Wind Speed Gust Speed Precip Events Conditions
12:53 AM 69.1 °F - 66.0 °F 90% 30.10 in 10.0 mi East 8.1 mph - N/A   Clear
1:53 AM 69.1 °F - 66.9 °F 93% 30.11 in 10.0 mi East 6.9 mph - N/A   Clear
2:53 AM 69.1 °F - 66.9 °F 93% 30.11 in 10.0 mi East 3.5 mph - N/A   Clear
3:53 AM 68.0 °F - 66.0 °F 93% 30.12 in 10.0 mi East 4.6 mph - N/A   Clear
4:53 AM 68.0 °F - 66.0 °F 93% 30.12 in 8.0 mi East 4.6 mph - N/A   Clear
5:53 AM 68.0 °F - 66.9 °F 96% 30.13 in 7.0 mi East 4.6 mph - N/A   Clear
6:53 AM 69.1 °F - 68.0 °F 96% 30.16 in 10.0 mi East 6.9 mph - N/A   Scattered Clouds
7:53 AM 73.0 °F - 70.0 °F 90% 30.17 in 10.0 mi ESE 6.9 mph - N/A   Mostly Cloudy
8:53 AM 75.9 °F - 71.1 °F 85% 30.18 in 10.0 mi SE 9.2 mph - N/A   Clear
9:53 AM 79.0 °F - 71.1 °F 77% 30.19 in 10.0 mi SSE 12.7 mph 17.3 mph N/A   Partly Cloudy
10:53 AM 80.1 °F 83.2 °F 70.0 °F 71% 30.19 in 10.0 mi SSE 10.4 mph - N/A   Scattered Clouds
11:53 AM 81.0 °F 84.1 °F 69.1 °F 67% 30.19 in 10.0 mi SSE 9.2 mph - N/A   Mostly Cloudy
12:53 PM 84.9 °F 90.1 °F 71.1 °F 63% 30.17 in 10.0 mi ESE 10.4 mph - N/A   Partly Cloudy
1:53 PM 86.0 °F 91.5 °F 71.1 °F 61% 30.16 in 10.0 mi SE 9.2 mph - N/A   Mostly Cloudy
2:53 PM 84.0 °F 88.4 °F 70.0 °F 63% 30.15 in 10.0 mi SSE 9.2 mph - N/A   Partly Cloudy
3:53 PM 78.1 °F - 71.1 °F 79% 30.17 in 10.0 mi SSW 13.8 mph 18.4 mph N/A   Scattered Clouds
4:53 PM 78.1 °F - 72.0 °F 81% 30.15 in 10.0 mi East 3.5 mph - 0.00 in   Overcast
5:53 PM 80.1 °F 84.2 °F 73.0 °F 79% 30.14 in 10.0 mi ENE 9.2 mph - N/A   Partly Cloudy
6:53 PM 78.1 °F - 72.0 °F 81% 30.14 in 10.0 mi East 5.8 mph - N/A   Scattered Clouds
7:53 PM 75.0 °F - 71.1 °F 87% 30.14 in 10.0 mi East 8.1 mph - N/A   Scattered Clouds
8:53 PM 73.9 °F - 71.1 °F 91% 30.17 in 10.0 mi ESE 4.6 mph - N/A   Scattered Clouds
9:53 PM 73.0 °F - 71.1 °F 93% 30.19 in 10.0 mi ESE 3.5 mph - N/A   Mostly Cloudy
10:53 PM 73.0 °F - 71.1 °F 93% 30.21 in 10.0 mi ESE 6.9 mph - N/A   Clear
11:33 PM 73.4 °F - 71.6 °F 94% 30.24 in 10.0 mi ESE 5.8 mph - N/A Thunderstorm Mostly Cloudy
11:53 PM 73.9 °F - 72.0 °F 93% 30.21 in 10.0 mi SSE 5.8 mph - N/A   Mostly Cloudy